{"data":{"norad_id":66755,"epoch":"2026-05-25T04:49:13.464192Z","epoch_age_seconds":57998,"freshness":"FRESH","line1":"1 66755U 25276CT  26145.20085028  .00001960  00000+0  12472-3 0  9998","line2":"2 66755  97.4208 218.1303 0003955  87.8914 272.2768 15.09917470 26867","mean_motion":15.0991747,"eccentricity":0.0003955,"inclination_deg":97.4208,"raan_deg":218.1303,"arg_perigee_deg":87.8914,"mean_anomaly_deg":272.2768,"bstar":0.00012472,"rev_number":2686,"period_min":95.369450887935,"perigee_km":533.71723290621,"apogee_km":539.1866727679,"semimajor_km":6914.5889528371,"source":"CELESTRAK","updated_at":"2026-05-25T13:38:06.452978Z"}}